Content
SEND FEEDBACK

Daily
Averages
Monthly
Summary
Switzerland

GENEVA, SWITZERLAND


Home > Europe > Switzerland
Elevation: 1364 feet     Latitude: 46 15N     Longitude: 006 08E

WEATHER
 
SELECT A DAY
Number of Records: 311,801;   Date Range: 7/1/96 - 10/1/14
 
SHARE

PRINT THIS DATA

[ ← Previous Day ]
WEATHER ALMANAC - OCTOBER 29, 2013
[ Next Day → ]
[ °C ]   °F
Weather ElementAverageHighLow
Temperature51.8 °F59 °F (12:50 pm)42.8 °F (11:50 pm)
Dewpoint45.8 °F49 °F (2:00 am)41 °F (7:00 pm)
Humidity79.2 %100 % (6:20 am)53 % (2:00 pm)
Barometer30.08 in30.19 in (11:00 pm)29.98 in (12:20 am)
Wind Speed2.5 mph6.9 mph (3:50 am)
Weather ElementAverage
Visibility7.6 mi
Wind DirectionE (86.9 °)

Weather ElementTotal
Precipitation---
Heating Degree Days14.1 (Base 65)
Growing Degree Days0.9 (Base 50)
Averaged from 65 records on October 29, 2013
WEATHER CONDITIONS BREAKOUT
WIND DIRECTION BREAKOUT
WEATHER BY HOUR - OCTOBER 29, 2013
[ °C ]   °F
Local TimeTemperatureDewpointHumidityBarometerVisibilityWind DirectionWind SpeedGust SpeedPrecipitationEventsConditions
12:20 AM57.2 °F48.2 °F72 %29.98 in6.2 miWest (280°)4.6 mphMostly Cloudy
12:50 AM57.2 °F48.2 °F72 %29.98 in6.2 miVariable2.3 mphRainLight Rain
1:00 AM56.0 °F46.0 °F60 %29.98 in11.0 miWest (270°)3.5 mphRainLight Rain
1:20 AM55.4 °F48.2 °F77 %29.98 in5.6 miNW (310°)3.5 mphRainLight Rain
1:50 AM51.8 °F48.2 °F88 %30.01 in5.6 miCalmRainLight Rain
2:00 AM51.0 °F49.0 °F92 %30.03 inNNW (330°)2.3 mph
2:50 AM50.0 °F48.2 °F94 %30.04 in5.6 miVariable2.3 mphRainLight Rain
3:00 AM51.0 °F48.0 °F87 %30.06 inENE (60°)2.3 mph
3:20 AM50.0 °F48.2 °F94 %30.06 in4.3 miSouth (170°)5.8 mphRainRain
3:50 AM48.2 °F46.4 °F93 %30.06 in6.2 miSSW (200°)6.9 mphRainRain
4:20 AM48.2 °F46.4 °F93 %30.06 in5.6 miSW (230°)4.6 mphRainLight Rain
4:50 AM48.2 °F46.4 °F93 %30.06 in5.6 miVariable2.3 mphRainLight Rain
5:00 AM49.0 °F46.0 °F85 %30.10 inWest (280°)4.6 mph
5:20 AM48.2 °F46.4 °F93 %30.09 in6.2 miVariable1.2 mphRainLight Rain
5:50 AM48.2 °F46.4 °F93 %30.09 in6.2 miVariable1.2 mphOvercast
6:00 AM49.0 °F46.0 °F86 %30.11 inEast (100°)1.2 mph
6:20 AM48.2 °F48.2 °F100 %30.09 in6.2 miEast (100°)3.5 mphMostly Cloudy
6:50 AM48.2 °F48.2 °F100 %30.09 in6.2 miCalmMostly Cloudy
7:00 AM49.0 °F47.0 °F90 %30.11 in12.0 miWNW (300°)2.3 mphPartly Cloudy
7:20 AM48.2 °F48.2 °F100 %30.09 in6.2 miVariable2.3 mphMostly Cloudy
7:50 AM50.0 °F48.2 °F94 %30.09 in6.2 miVariable1.2 mphMostly Cloudy
8:00 AM50.0 °F46.0 °F83 %30.11 inWest (280°)3.5 mph
8:20 AM50.0 °F48.2 °F94 %30.09 in6.2 miWest (280°)3.5 mphMostly Cloudy
8:50 AM50.0 °F48.2 °F94 %30.09 in6.2 miCalmMostly Cloudy
9:00 AM51.0 °F47.0 °F80 %30.11 inWSW (240°)2.3 mph
9:20 AM51.8 °F48.2 °F88 %30.09 in6.2 miVariable2.3 mphMostly Cloudy
9:50 AM53.6 °F48.2 °F82 %30.09 in6.2 miVariable3.5 mphMostly Cloudy
10:20 AM53.6 °F46.4 °F77 %30.09 in6.2 miVariable3.5 mphMostly Cloudy
10:50 AM55.4 °F46.4 °F72 %30.09 in6.2 miVariable3.5 mphMostly Cloudy
11:00 AM53.0 °F46.0 °F71 %30.10 inSSW (210°)4.6 mph
11:20 AM55.4 °F48.2 °F77 %30.09 in6.2 miVariable2.3 mphScattered Clouds
11:50 AM55.4 °F46.4 °F72 %30.09 in6.2 miVariable4.6 mphMostly Cloudy
12:00 PM54.0 °F44.0 °F59 %30.09 inSE (130°)4.6 mph
12:20 PM57.2 °F46.4 °F67 %30.06 in6.2 miESE (120°)3.5 mphMostly Cloudy
12:50 PM59.0 °F46.4 °F63 %30.06 in6.2 miVariable2.3 mphMostly Cloudy
1:00 PM58.0 °F46.0 °F54 %30.06 in47.0 miEast (100°)3.5 mphScattered Clouds
1:20 PM59.0 °F46.4 °F63 %30.06 in6.2 miESE (110°)4.6 mphScattered Clouds
1:50 PM57.2 °F44.6 °F63 %30.06 in6.2 miESE (120°)3.5 mphScattered Clouds
2:00 PM56.0 °F44.0 °F53 %30.06 inSE (130°)4.6 mph
2:20 PM57.2 °F44.6 °F63 %30.06 in6.2 miESE (110°)5.8 mphMostly Cloudy
2:50 PM59.0 °F44.6 °F59 %30.06 in6.2 miVariable2.3 mphMostly Cloudy
3:20 PM59.0 °F44.6 °F59 %30.06 in6.2 miVariable2.3 mphScattered Clouds
3:50 PM57.2 °F46.4 °F67 %30.06 in6.2 miEast (100°)4.6 mphScattered Clouds
4:20 PM57.2 °F48.2 °F72 %30.06 in6.2 miENE (60°)4.6 mphScattered Clouds
4:50 PM55.4 °F46.4 °F72 %30.06 in6.2 miNNE (20°)3.5 mphScattered Clouds
5:00 PM55.0 °F45.0 °F61 %30.08 inNorth (10°)3.5 mph
5:20 PM55.4 °F46.4 °F72 %30.09 in6.2 miVariable2.3 mphScattered Clouds
5:50 PM55.4 °F44.6 °F67 %30.09 in6.2 miVariable2.3 mphMostly Cloudy
6:00 PM54.0 °F42.0 °F54 %30.10 inNorth3.5 mph
6:20 PM53.6 °F42.8 °F67 %30.09 in6.2 miVariable1.2 mphMostly Cloudy
6:50 PM51.8 °F42.8 °F71 %30.09 in6.2 miNNE (30°)2.3 mphMostly Cloudy
7:00 PM51.0 °F41.0 °F59 %30.12 in31.0 miNNW (340°)1.2 mphScattered Clouds
7:20 PM51.8 °F42.8 °F71 %30.09 in6.2 miCalmScattered Clouds
7:50 PM48.2 °F44.6 °F87 %30.12 in6.2 miCalmScattered Clouds
8:00 PM48.0 °F43.0 °F77 %30.14 inNE (40°)1.2 mph
8:20 PM46.4 °F44.6 °F93 %30.12 in6.2 miCalmPartly Cloudy
8:50 PM46.4 °F42.8 °F87 %30.12 in6.2 miCalmPartly Cloudy
9:00 PM47.0 °F43.0 °F79 %30.17 inWest (280°)3.5 mph
9:20 PM46.4 °F44.6 °F93 %30.12 in6.2 miCalmScattered Clouds
9:50 PM46.4 °F44.6 °F93 %30.15 in6.2 miCalmPartly Cloudy
10:20 PM46.4 °F44.6 °F93 %30.15 in6.2 miCalmPartly Cloudy
10:50 PM44.6 °F42.8 °F93 %30.15 in6.2 miVariable1.2 mphPartly Cloudy
11:00 PM45.0 °F42.0 °F86 %30.19 inNW (310°)2.3 mph
11:20 PM44.6 °F42.8 °F93 %30.15 in6.2 miCalmPartly Cloudy
11:50 PM42.8 °F41.0 °F93 %30.15 in6.2 miCalmScattered Clouds
Hourly data recorded from LSGG, located miles away from Geneva, Switzerland







STORIES FROM OUR PARTNERS